Miscellaneous Local Product
Issued by NWS Hastings, NE

Home | Current Version | Previous Version | Text Only | Print | Product List | Glossary On
Versions: 1 2 3 4 5 6 7 8 9 10 11 12 13 14 15 16 17 18 19 20 21 22 23 24 25 26 27 28 29 30 31 32 33 34 35 36 37 38 39 40 41 42 43 44 45 46 47 48 49 50
215
AXUS43 KGID 300402
MISGRI

GID CWA HOURLY WEATHER ROUNDUP
NATIONAL WEATHER SERVICE HASTINGS NE
1100 PM CDT FRI JUL 29 2016

NOTE: "FAIR" INDICATES FEW OR NO CLOUDS BELOW 12,000 FEET WITH NO
SIGNIFICANT WEATHER AND/OR OBSTRUCTIONS TO VISIBILITY.

...SOUTH CENTRAL NEBRASKA...

CITY           SKY/WX    TMP DP  RH WIND       PRES   REMARKS
GRAND ISLAND   PTCLDY    68  63  84 E5        30.06R
HASTINGS       CLOUDY    70  62  76 E6        30.06R
KEARNEY        PTCLDY    66  64  94 E6        30.07R
ORD            CLOUDY    67  60  78 E3        30.05R
YORK           CLEAR     64  59  82 CALM      30.05S
AURORA         CLEAR     66  65  94 E3        30.05S
LEXINGTON      PTCLDY    70  64  82 E5        30.06R
HOLDREGE       CLOUDY    67  64  90 E6        30.07R
HEBRON         CLEAR     67  63  87 CALM      30.04R

...NEBRASKA PANHANDLE...

CITY           SKY/WX    TMP DP  RH WIND       PRES   REMARKS
CHADRON        CLEAR     66  60  81 W5        30.03R
ALLIANCE       CLOUDY    62  56  80 S7        30.07F
SCOTTSBLUFF    CLEAR     61  58  90 E7        30.09R
SIDNEY         CLOUDY    63  58  83 S8        30.12R

...WESTERN AND NORTH CENTRAL NEBRASKA...

CITY           SKY/WX    TMP DP  RH WIND       PRES   REMARKS
VALENTINE      CLEAR     68  61  78 E7        30.03F
AINSWORTH      CLOUDY    65  63  90 SE5       30.06S
ONEILL         PTCLDY    69  60  74 SE5       30.07R
BROKEN BOW     CLOUDY    66  63  90 E5        30.06R
IMPERIAL       PTCLDY    72  63  73 S3        30.08R
NORTH PLATTE   MOCLDY    68  66  93 E6        30.06R
MCCOOK         CLOUDY    71  65  81 E8        30.07R

...EASTERN NEBRASKA...

CITY           SKY/WX    TMP DP  RH WIND       PRES   REMARKS
NORFOLK        CLOUDY    62  57  83 SE3       30.05R
SO SIOUX CITY  PTCLDY    68  62  81 SE3       30.04R
TEKAMAH        CLEAR     66  61  84 SE3       30.04R
COLUMBUS       CLOUDY    63  54  72 CALM      30.05S
ALBION         PTCLDY    64  59  83 CALM      30.07R
OMAHA EPPLEY   CLEAR     71  61  70 CALM      30.04R
OFFUTT AFB     CLEAR     67  63  87 NE5       30.02S
MILLARD        CLEAR     72  63  72 E5        30.03S
LINCOLN        CLEAR     71  62  73 E8        30.04R
NEBRASKA CITY  CLEAR     65  65 100 NE6       30.03S
BEATRICE       PTCLDY    67  60  77 CALM      30.03S
FALLS CITY     CLEAR     69  64  84 CALM      30.01R

...NORTHERN KANSAS...

CITY           SKY/WX    TMP DP  RH WIND       PRES   REMARKS
GOODLAND       CLOUDY    67  62  84 S6        30.12R
HILL CITY      CLOUDY    72  66  81 CALM      30.06R
NORTON         CLEAR     70  61  73 E5        30.06
SMITH CENTER   CLEAR     66  64  94 E7        30.05R
BELOIT         CLEAR     70  66  88 NE5       30.02R
HAYS           PTCLDY    73  61  64 S5        30.04R
RUSSELL        CLEAR     72  66  81 E7        30.03R
CONCORDIA      PTCLDY    68  65  90 SE6       30.03R
SALINA         CLEAR     79  66  64 E5        30.02R
TOPEKA         CLEAR     72  64  76 N3        30.01R



USA.gov is the U.S. government's official web portal to all federal, state and local government web resources and services.